Radiation Dose at Monitoring Post of Fukushima Daini Nuclear Power Station
Date,Time,MP-1(microSv/h),MP-2(microSv/h),MP-3(microSv/h),MP-4(microSv/h),MP-5(microSv/h),MP-6(microSv/h),MP-7(microSv/h),Wind Direction,Wind Velocity(m/s),Rain
2022/04/07,00:00,0.155,0.141,0.221,0.216,0.221,0.122,0.077,north,6.1,No
2022/04/07,00:10,0.153,0.140,0.223,0.215,0.220,0.122,0.077,north,5.7,No
2022/04/07,00:20,0.154,0.141,0.223,0.215,0.221,0.122,0.078,north,5.7,No
2022/04/07,00:30,0.154,0.141,0.223,0.216,0.221,0.122,0.077,north-northwest,5.9,No
2022/04/07,00:40,0.155,0.140,0.223,0.215,0.220,0.122,0.078,north,5.4,No
2022/04/07,00:50,0.155,0.141,0.223,0.215,0.220,0.122,0.077,north,4.4,No
2022/04/07,01:00,0.154,0.139,0.224,0.217,0.221,0.122,0.077,north,5.9,No
2022/04/07,01:10,0.155,0.140,0.222,0.216,0.220,0.122,0.079,north,7.1,No
2022/04/07,01:20,0.154,0.140,0.222,0.216,0.220,0.122,0.078,north,7.5,No
2022/04/07,01:30,0.154,0.140,0.224,0.215,0.221,0.122,0.078,north,5.9,No
2022/04/07,01:40,0.155,0.140,0.223,0.216,0.220,0.123,0.078,north,6.3,No
2022/04/07,01:50,0.155,0.141,0.222,0.215,0.220,0.122,0.078,north,4.9,No
2022/04/07,02:00,0.155,0.140,0.223,0.216,0.220,0.122,0.078,north,4.4,No
2022/04/07,02:10,0.154,0.140,0.223,0.216,0.220,0.122,0.078,north-northwest,4.9,No
2022/04/07,02:20,0.155,0.140,0.223,0.216,0.220,0.123,0.078,north-northwest,4.6,No
2022/04/07,02:30,0.153,0.141,0.223,0.215,0.219,0.121,0.078,north,6.1,No
2022/04/07,02:40,0.153,0.140,0.222,0.216,0.220,0.121,0.078,north,5.9,No
2022/04/07,02:50,0.155,0.140,0.223,0.216,0.221,0.122,0.078,north,6.0,No
2022/04/07,03:00,0.155,0.141,0.223,0.215,0.218,0.122,0.078,north,5.5,No
2022/04/07,03:10,0.154,0.141,0.223,0.217,0.220,0.122,0.077,north,5.5,No
2022/04/07,03:20,0.155,0.140,0.223,0.215,0.220,0.123,0.077,north-northwest,4.8,No
2022/04/07,03:30,0.155,0.141,0.223,0.215,0.220,0.123,0.078,north,6.0,No
2022/04/07,03:40,0.155,0.140,0.224,0.215,0.219,0.123,0.077,north-northwest,5.9,No
2022/04/07,03:50,0.154,0.140,0.223,0.217,0.220,0.123,0.078,north,7.1,No
2022/04/07,04:00,0.155,0.140,0.223,0.216,0.220,0.122,0.078,north-northwest,7.1,No
2022/04/07,04:10,0.155,0.140,0.225,0.215,0.220,0.122,0.078,north-northwest,7.3,No
2022/04/07,04:20,0.154,0.140,0.225,0.217,0.220,0.123,0.078,north-northwest,7.2,No
2022/04/07,04:30,0.155,0.140,0.222,0.217,0.220,0.122,0.078,north-northwest,6.6,No
2022/04/07,04:40,0.154,0.141,0.223,0.215,0.219,0.122,0.078,north-northwest,6.0,No
2022/04/07,04:50,0.155,0.141,0.224,0.216,0.220,0.123,0.078,north-northwest,7.0,No
2022/04/07,05:00,0.155,0.140,0.223,0.217,0.220,0.123,0.078,north-northwest,6.1,No
2022/04/07,05:10,0.155,0.139,0.223,0.217,0.220,0.122,0.078,north-northwest,5.9,No
2022/04/07,05:20,0.154,0.141,0.223,0.215,0.221,0.122,0.078,north-northwest,6.0,No
2022/04/07,05:30,0.154,0.140,0.223,0.215,0.221,0.122,0.078,north-northwest,5.9,No
2022/04/07,05:40,0.155,0.139,0.223,0.215,0.220,0.122,0.078,north-northwest,5.9,No
2022/04/07,05:50,0.154,0.140,0.224,0.217,0.220,0.122,0.077,north-northwest,6.3,No
2022/04/07,06:00,0.154,0.140,0.223,0.215,0.220,0.122,0.078,north-northwest,5.8,No
2022/04/07,06:10,0.155,0.140,0.224,0.216,0.220,0.122,0.078,north-northwest,5.1,No
2022/04/07,06:20,0.155,0.141,0.224,0.217,0.220,0.122,0.077,north-northwest,5.1,No
2022/04/07,06:30,0.155,0.140,0.223,0.215,0.221,0.122,0.078,north-northwest,4.6,No
2022/04/07,06:40,0.156,0.141,0.223,0.216,0.220,0.122,0.078,north-northwest,5.2,No
2022/04/07,06:50,0.155,0.141,0.223,0.216,0.221,0.122,0.078,north-northwest,4.0,No
2022/04/07,07:00,0.154,0.140,0.224,0.215,0.220,0.123,0.078,north,3.5,No
2022/04/07,07:10,0.155,0.140,0.222,0.215,0.220,0.122,0.077,north-northwest,4.4,No
2022/04/07,07:20,0.156,0.139,0.222,0.216,0.221,0.122,0.077,north,4.4,No
2022/04/07,07:30,0.154,0.140,0.223,0.215,0.221,0.122,0.078,north-northeast,4.6,No
2022/04/07,07:40,0.156,0.139,0.223,0.215,0.221,0.123,0.078,north-northeast,3.3,No
2022/04/07,07:50,0.155,0.140,0.223,0.216,0.222,0.122,0.077,north-northeast,4.1,No
2022/04/07,08:00,0.155,0.140,0.224,0.215,0.221,0.121,0.078,north-northeast,4.3,No
2022/04/07,08:10,0.155,0.138,0.222,0.215,0.220,0.121,0.078,north-northeast,4.4,No
2022/04/07,08:20,0.155,0.140,0.222,0.215,0.219,0.121,0.078,north-northeast,3.5,No
2022/04/07,08:30,0.154,0.139,0.223,0.215,0.220,0.122,0.078,north,4.4,No
2022/04/07,08:40,0.155,0.140,0.224,0.217,0.222,0.122,0.078,north-northeast,3.5,No
2022/04/07,08:50,0.155,0.140,0.224,0.215,0.220,0.122,0.078,north,3.7,No
2022/04/07,09:00,0.154,0.139,0.224,0.216,0.222,0.123,0.078,north-northeast,3.8,No
2022/04/07,09:10,0.154,0.140,0.223,0.216,0.220,0.122,0.077,north-northeast,3.8,No
2022/04/07,09:20,0.154,0.140,0.224,0.216,0.222,0.123,0.078,north-northeast,3.8,No
2022/04/07,09:30,0.155,0.139,0.223,0.216,0.221,0.122,0.078,north-northeast,3.7,No
2022/04/07,09:40,0.154,0.140,0.223,0.216,0.220,0.121,0.077,north-northeast,3.7,No
2022/04/07,09:50,0.155,0.140,0.224,0.216,0.221,0.122,0.077,northeast,3.2,No
2022/04/07,10:00,0.155,0.140,0.223,0.216,0.219,0.121,0.078,north-northeast,3.3,No
2022/04/07,10:10,0.154,0.140,0.223,0.216,0.221,0.122,0.078,northeast,3.7,No
2022/04/07,10:20,0.154,0.140,0.224,0.215,0.219,0.122,0.078,northeast,4.3,No
2022/04/07,10:30,0.154,0.140,0.224,0.215,0.221,0.122,0.078,north-northeast,3.5,No
2022/04/07,10:40,0.154,0.140,0.223,0.215,0.219,0.121,0.077,north-northeast,3.5,No
2022/04/07,10:50,0.154,0.140,0.222,0.215,0.220,0.122,0.078,northeast,3.8,No
2022/04/07,11:00,0.154,0.140,0.223,0.217,0.219,0.123,0.077,northeast,2.5,No
2022/04/07,11:10,0.154,0.141,0.222,0.215,0.222,0.122,0.078,northeast,2.7,No
2022/04/07,11:20,0.154,0.140,0.223,0.216,0.219,0.122,0.077,north-northeast,3.2,No
2022/04/07,11:30,0.154,0.140,0.225,0.216,0.222,0.122,0.077,northeast,2.7,No
2022/04/07,11:40,0.154,0.141,0.225,0.217,0.219,0.121,0.077,north-northeast,3.5,No
2022/04/07,11:50,0.154,0.139,0.224,0.215,0.221,0.122,0.078,north-northeast,2.5,No
2022/04/07,12:00,0.155,0.140,0.224,0.216,0.218,0.122,0.078,northeast,2.7,No
2022/04/07,12:10,0.154,0.140,0.224,0.217,0.220,0.122,0.077,north-northeast,1.8,No
2022/04/07,12:20,0.155,0.140,0.223,0.217,0.218,0.122,0.077,northeast,3.5,No
2022/04/07,12:30,0.154,0.140,0.224,0.216,0.222,0.123,0.078,northeast,2.7,No
2022/04/07,12:40,0.154,0.139,0.225,0.217,0.220,0.123,0.078,northeast,3.3,No
2022/04/07,12:50,0.155,0.140,0.224,0.216,0.221,0.122,0.078,east-northeast,2.9,No
2022/04/07,13:00,0.154,0.140,0.225,0.216,0.220,0.122,0.077,north-northeast,2.5,No
2022/04/07,13:10,0.155,0.140,0.223,0.217,0.221,0.122,0.077,northeast,2.5,No
2022/04/07,13:20,0.154,0.141,0.224,0.216,0.220,0.122,0.078,northeast,2.2,No
2022/04/07,13:30,0.155,0.140,0.225,0.216,0.221,0.122,0.078,east-northeast,2.7,No
2022/04/07,13:40,0.154,0.141,0.224,0.215,0.220,0.123,0.078,northeast,3.0,No
2022/04/07,13:50,0.155,0.140,0.225,0.217,0.222,0.122,0.078,east-northeast,2.5,No
2022/04/07,14:00,0.155,0.140,0.224,0.216,0.220,0.122,0.078,northeast,3.5,No
2022/04/07,14:10,0.155,0.141,0.225,0.218,0.220,0.122,0.078,east-northeast,3.0,No
2022/04/07,14:20,0.154,0.140,0.225,0.216,0.219,0.122,0.077,east-northeast,2.7,No
2022/04/07,14:30,0.155,0.141,0.224,0.217,0.222,0.122,0.077,northeast,2.2,No
2022/04/07,14:40,0.156,0.140,0.225,0.216,0.221,0.123,0.078,northeast,2.2,No
2022/04/07,14:50,0.155,0.140,0.224,0.217,0.219,0.123,0.078,northeast,1.9,No
2022/04/07,15:00,0.154,0.140,0.225,0.217,0.220,0.122,0.078,north-northeast,1.8,No
2022/04/07,15:10,0.154,0.141,0.225,0.216,0.221,0.122,0.077,northeast,2.5,No
2022/04/07,15:20,0.155,0.141,0.226,0.217,0.221,0.123,0.078,east-northeast,1.8,No
2022/04/07,15:30,0.154,0.141,0.227,0.217,0.222,0.123,0.078,east-southeast,1.9,No
2022/04/07,15:40,0.155,0.141,0.225,0.218,0.221,0.123,0.078,east-northeast,2.2,No
2022/04/07,15:50,0.156,0.141,0.225,0.218,0.221,0.122,0.078,east-southeast,1.6,No
2022/04/07,16:00,0.155,0.141,0.226,0.217,0.221,0.123,0.078,east-southeast,1.3,No
2022/04/07,16:10,0.155,0.141,0.224,0.218,0.222,0.122,0.079,east-southeast,1.0,No
2022/04/07,16:20,0.155,0.141,0.224,0.217,0.222,0.123,0.078,east,0.7,No
2022/04/07,16:30,0.155,0.142,0.225,0.215,0.222,0.123,0.078,east-northeast,1.0,No
2022/04/07,16:40,0.156,0.141,0.225,0.217,0.222,0.123,0.078,northeast,1.3,No
2022/04/07,16:50,0.155,0.141,0.224,0.216,0.222,0.123,0.078,east-northeast,1.0,No
2022/04/07,17:00,0.155,0.142,0.226,0.217,0.221,0.124,0.079,east-northeast,1.3,No
2022/04/07,17:10,0.156,0.141,0.225,0.218,0.221,0.122,0.079,-,CALM,No
2022/04/07,17:20,0.156,0.141,0.224,0.217,0.223,0.123,0.078,east-northeast,0.8,No
2022/04/07,17:30,0.155,0.141,0.225,0.217,0.220,0.122,0.078,-,CALM,No
2022/04/07,17:40,0.156,0.140,0.225,0.217,0.222,0.124,0.078,-,CALM,No
2022/04/07,17:50,0.155,0.141,0.225,0.217,0.221,0.123,0.078,-,CALM,No
2022/04/07,18:00,0.155,0.141,0.225,0.217,0.221,0.123,0.077,-,CALM,No
2022/04/07,18:10,0.157,0.141,0.225,0.218,0.221,0.123,0.078,-,CALM,No
2022/04/07,18:20,0.154,0.141,0.225,0.218,0.221,0.123,0.079,-,CALM,No
2022/04/07,18:30,0.155,0.142,0.224,0.217,0.222,0.122,0.078,north-northeast,1.0,No
2022/04/07,18:40,0.155,0.141,0.225,0.218,0.220,0.124,0.078,east-northeast,0.5,No
2022/04/07,18:50,0.156,0.141,0.225,0.217,0.221,0.123,0.078,north-northeast,1.1,No
2022/04/07,19:00,0.154,0.141,0.224,0.219,0.221,0.122,0.078,north-northeast,1.3,No
2022/04/07,19:10,0.156,0.141,0.226,0.216,0.220,0.122,0.079,north-northwest,3.0,No
2022/04/07,19:20,0.155,0.140,0.225,0.217,0.222,0.123,0.078,north-northwest,4.1,No
2022/04/07,19:30,0.156,0.142,0.224,0.217,0.222,0.123,0.078,north-northwest,4.6,Yes
2022/04/07,19:40,0.155,0.141,0.225,0.218,0.221,0.123,0.078,north-northwest,4.1,Yes
2022/04/07,19:50,0.156,0.140,0.226,0.217,0.222,0.122,0.079,north-northwest,4.1,Yes
2022/04/07,20:00,0.156,0.142,0.226,0.218,0.222,0.123,0.078,north,3.7,Yes
2022/04/07,20:10,0.156,0.142,0.226,0.218,0.222,0.123,0.079,north,3.5,Yes
2022/04/07,20:20,0.156,0.141,0.225,0.218,0.221,0.123,0.079,north-northwest,3.0,Yes
2022/04/07,20:30,0.157,0.142,0.226,0.218,0.221,0.124,0.078,northwest,2.2,Yes
2022/04/07,20:40,0.157,0.142,0.226,0.218,0.221,0.123,0.079,north,1.8,Yes
2022/04/07,20:50,0.155,0.142,0.226,0.218,0.221,0.123,0.079,north,3.8,Yes
2022/04/07,21:00,0.156,0.143,0.227,0.217,0.221,0.123,0.079,north-northwest,3.8,Yes
2022/04/07,21:10,0.155,0.142,0.225,0.218,0.221,0.122,0.079,north-northwest,3.8,Yes
2022/04/07,21:20,0.156,0.141,0.225,0.218,0.222,0.123,0.079,north-northwest,3.8,No
2022/04/07,21:30,0.156,0.141,0.227,0.217,0.221,0.123,0.078,north-northwest,3.3,No
2022/04/07,21:40,0.156,0.143,0.226,0.218,0.221,0.123,0.079,north-northwest,3.0,No
2022/04/07,21:50,0.155,0.141,0.225,0.217,0.221,0.123,0.078,northwest,4.1,Yes
2022/04/07,22:00,0.156,0.141,0.225,0.218,0.221,0.123,0.079,west-northwest,3.3,Yes
2022/04/07,22:10,0.156,0.143,0.227,0.219,0.222,0.124,0.079,west-northwest,3.8,Yes
2022/04/07,22:20,0.157,0.144,0.226,0.219,0.222,0.125,0.080,northwest,3.7,Yes
2022/04/07,22:30,0.159,0.145,0.228,0.220,0.223,0.127,0.082,north-northwest,2.7,Yes
2022/04/07,22:40,0.160,0.146,0.229,0.220,0.223,0.129,0.083,north-northwest,1.3,Yes
2022/04/07,22:50,0.161,0.148,0.230,0.222,0.226,0.130,0.084,north,2.2,Yes
2022/04/07,23:00,0.160,0.148,0.230,0.220,0.225,0.130,0.084,north-northwest,2.4,Yes
2022/04/07,23:10,0.160,0.146,0.228,0.220,0.226,0.129,0.084,north,2.7,Yes
2022/04/07,23:20,0.159,0.146,0.228,0.219,0.225,0.127,0.083,north,3.2,Yes
2022/04/07,23:30,0.159,0.145,0.227,0.220,0.223,0.126,0.082,north,2.5,Yes
2022/04/07,23:40,0.157,0.143,0.225,0.217,0.221,0.126,0.082,north,1.9,Yes
2022/04/07,23:50,0.159,0.143,0.225,0.217,0.222,0.126,0.080,north,1.0,Yes
